Tracking 26544 objects as of 9-Dec-2022
HD Live streaming from Space Station
objects crossing your sky now

EUTELSAT 1-F2 (ECS 2)

Track EUTELSAT 1-F2 (ECS 2) now!
EUTELSAT 1-F2 (ECS 2) is classified as:


NORAD ID: 15158
Int'l Code: 1984-081A
Perigee: 36,166.2 km
Apogee: 36,259.9 km
Inclination: 14.0 °
Period: 1,457.6 minutes
Semi major axis: 42584 km
RCS: 5.0119 m2 (large)
Launch date: August 4, 1984
Source: European Telecommunications Satellite Organization (EUTE)
Launch site: FRENCH GUIANA (FRGUI)
aabbcc
Your satellite tracking list
Your tracking list is empty




NASA's NSSDC Master Catalog

Two Line Element Set (TLE):
1 15158U 84081A   22342.83128619 -.00000022  00000-0  00000-0 0  9997
2 15158  13.9620 342.1223 0010994 188.7870 296.2304  0.98794491104554
Source of the keplerian elements: AFSPC